Overview Statistics Trail Chart Weather Telemetry Raw packets
 

This is the latest recevied weather packets stored in our database for station/object KC1HBM. If no packets are shown the sender has not sent any weather packets the latest 10 day(s).

<< 5 6 7 8 9 10 11 >>
Time Temp. Humidity Pressure Rain* Wind** Luminosity Snow
1788581840 18.33° C 88% 1005.7 hPa 0 mm - 0 W/m² -
1788581535 18.33° C 88% 1006 hPa 0 mm - 0 W/m² -
1788581230 18.33° C 87% 1006 hPa 0 mm - 0 W/m² -
1788580928 18.89° C 86% 1006 hPa 0 mm - 0 W/m² -
1788580623 18.89° C 86% 1006 hPa 0 mm - 0 W/m² -
1788580320 18.89° C 85% 1005.9 hPa 0 mm - 0 W/m² -
1788580016 18.89° C 85% 1005.8 hPa 0 mm - 0 W/m² -
1788579715 18.89° C 86% 1005.9 hPa 0 mm - 0 W/m² -
1788579414 18.89° C 86% 1005.8 hPa 0 mm - 0 W/m² -
1788579110 18.89° C 87% 1005.8 hPa 0 mm - 0 W/m² -
1788578810 18.89° C 89% 1005.7 hPa 0 mm - 0 W/m² -
1788578510 19.44° C 90% 1006 hPa 0 mm - 0 W/m² -
1788578206 19.44° C 88% 1005.8 hPa 0 mm - 0 W/m² -
1788577901 19.44° C 84% 1005.9 hPa 0 mm - 0 W/m² -
1788577596 19.44° C 83% 1005.8 hPa 0 mm - 0 W/m² -
1788577291 20° C 83% 1005.9 hPa 0 mm - 0 W/m² -
1788576986 20° C 82% 1006.1 hPa 0 mm - 0 W/m² -
1788576682 20° C 82% 1005.8 hPa 0 mm - 0 W/m² -
1788576378 20° C 81% 1005.9 hPa 0 mm - 0 W/m² -
1788576073 20° C 81% 1005.8 hPa 0 mm - 0 W/m² -
1788575768 20° C 81% 1005.9 hPa 0 mm - 0 W/m² -
1788575462 20.56° C 80% 1006.1 hPa 0 mm - 0 W/m² -
1788575161 20.56° C 80% 1005.9 hPa 0 mm - 0 W/m² -
1788574857 20.56° C 80% 1006 hPa 0 mm - 0 W/m² -
1788574556 20.56° C 79% 1006.3 hPa 0 mm - 0 W/m² -

* Rain latest hour (hover to see other rain measurements)
** Current wind speed in m/s (hover to see current wind gust speed)